Location: Clyde
(45.1830°S, 169.3170°E)
Time: 07:31:37
(UTC+12:00)

Okean O Rocket - Pass Details

Date: 14 May 2021
Orbit: 622 x 645 km, 98.2° (Epoch: 19 June)

Event Time Altitude Azimuth Distance (km) Brightness Sun altitude
Exits shadow 19:06:03 34° 111° (ESE) 1,069 2.2 -17.8°
Maximum altitude 19:07:00 39° 82° (E) 987 2.1 -18.0°
Drops below altitude 10° 19:11:12 10° 13° (NNE) 2,051 4.2 -18.7°
Sets 19:13:31 0° 5° (N) 2,953 5.1 -19.1°
